Home > Weather > Stockerau > Past weeks

Flag for Austria Past Weather in Stockerau, Lower Austria, Austria — Yesterday and Last 2 Weeks

Now
68 °F

Broken clouds.


Feels Like: 68 °F
Forecast: 59 / 82 °F
Wind: 9 mph from Southwest

Location: Tulln Airport

Current Time: Jul 28, 2016 at 8:54:16 AM

Latest Report: Jul 28, 2016 at 7:50 AM


Visibility: 15 mi

Pressure: 30.04 "Hg

Humidity: 88%

Dew Point: 64 °F

Location of StockerauLocation

Past Weather in Stockerau — Graph

°F

Stockerau Temperature Yesterday

Maximum temperature yesterday: 84 °F (at 4:50 PM)
Minimum temperature yesterday: 68 °F (at 5:50 AM)
Average temperature yesterday: 77 °F

High & Low Weather Summary for the Past Weeks

 TemperatureHumidityPressure
High86 °F (Jul 21, 2:50 PM)100% (Jul 13, 10:50 PM)30.21 "Hg (Jul 13, 10:50 PM)
Low54 °F (Jul 15, 5:50 AM)42% (Jul 18, 6:50 PM)29.80 "Hg (Jul 14, 6:50 AM)
Average72 °F70%30.04 "Hg
* Reported Jul 13 6:50 AM — Jul 28 6:50 AM, Stockerau, Weather by CustomWeather, © 2016

Note: Actual official high and low records may vary slightly from our data, if they occured in-between our weather recording intervals... More about our weather records

Advertising

Stockerau Weather History for the Previous 24 Hours

Scroll right to see more
 ConditionsComfort  
Time TempWeatherWind HumidityBarometerVisibility
6:50 AM
Thu, Jul 28
66 °FPartly sunny.10 mph88%30.04 "Hg16 mi
5:50 AM66 °FPassing clouds.8 mph88%30.01 "Hg16 mi
10:50 PM
Wed, Jul 27
72 °FPartly cloudy.6 mph83%29.98 "Hg12 mi
9:50 PM73 °FPassing clouds.1 mph74%29.98 "Hg12 mi
8:50 PM73 °FPartly sunny.3 mph74%29.98 "Hg16 mi
7:50 PM77 °FBroken clouds.5 mph65%29.95 "Hg19 mi
6:50 PM79 °FPartly sunny.3 mph65%29.92 "Hg19 mi
5:50 PM81 °FPartly sunny.6 mph62%29.92 "Hg12 mi
4:50 PM84 °FPartly sunny.6 mph51%29.92 "Hg12 mi
3:50 PM82 °FPassing clouds.7 mph58%29.95 "Hg9 mi
2:50 PM82 °FPartly sunny.3 mph55%29.95 "Hg12 mi
1:50 PM82 °FPartly sunny.3 mph55%29.98 "Hg12 mi
12:50 PM82 °FPartly sunny.5 mph58%30.01 "Hg11 mi
12:20 PM81 °FPartly sunny.5 mph62%30.01 "Hg11 mi
11:50 AM81 °FPartly sunny.5 mph66%30.01 "Hg11 mi
10:50 AM79 °FPartly sunny.6 mph65%30.04 "Hg9 mi
9:50 AM77 °FPartly sunny.5 mph69%30.04 "Hg11 mi
8:50 AM75 °FPartly sunny.7 mph69%30.04 "Hg11 mi
Weather by CustomWeather, © 2016

See weather overviewHow to use our weather pages